Regional Weather Roundup
Issued by NWS Northern Indiana

Home | Current Version | Previous Version | Graphics & Text | Print | Product List | Glossary On
Versions: 1 2 3 4 5 6 7 8 9 10 11 12 13 14 15 16 17 18 19 20 21 22 23 24 25 26 27 28 29 30 31 32 33 34 35 36 37 38 39 40 41 42 43 44 45 46 47 48 49 50
000
ASUS43 KIWX 201600
RWRIWX

KIWX WEATHER ROUNDUP
NATIONAL WEATHER SERVICE NORTHERN INDIANA
1200 PM EDT WED AUG 20 2014

NOTE: "FAIR" INDICATES FEW OR NO CLOUDS BELOW 12,000 FEET WITH NO
SIGNIFICANT WEATHER AND/OR OBSTRUCTIONS TO VISIBILITY.

* THESE STATIONS ARE NOT UNDER NWS QUALITY CONTROL. THEY ALSO MAY NOT
  REPORT WEATHER SUCH AS PRECIPITATION OR FOG.

INZ001>027-201700-
NORTHERN INDIANA

CITY           SKY/WX    TMP DP  RH WIND       PRES   REMARKS
GARY*          MOSUNNY   79  64  61 SW5       29.89R
VALPARAISO     SUNNY     80  65  59 W10       29.91R
KNOX*          SUNNY     80  65  61 W8        29.90R
SOUTH BEND     NOT AVBL
GOSHEN         MOSUNNY   80  66  62 W8        29.91R
MONTICELLO*    SUNNY     78  68  70 W6        29.92S
WARSAW*        SUNNY     79  64  61 W9        29.91R
ANGOLA*        MOSUNNY   81  68  65 SW7       29.90R
FORT WAYNE     MOSUNNY   79  67  66 SW9       29.93R
PERU/GRISSOM   MOSUNNY   80  72  77 SW7       29.93R

$$
INZ028>050-201700-
CENTRAL INDIANA

CITY           SKY/WX    TMP DP  RH WIND       PRES   REMARKS
LAFAYETTE      SUNNY     79  66  64 SW8       29.93R
KOKOMO*        SUNNY     81  66  61 W9        29.93S
MUNCIE*        SUNNY     80  66  62 W10       29.95R
INDIANAPOLIS   PTSUNNY   80  69  69 W9        29.96R

$$
MIZ043>046-050>051-056>058-064>065-071>073-077>080-201700-
SOUTHWEST LOWER MICHIGAN

CITY           SKY/WX    TMP DP  RH WIND       PRES   REMARKS
BATTLE CREEK   PTSUNNY   78  63  59 W14       29.90R
BENTON HARBOR  SUNNY     75  66  73 W8        29.89R
COLDWATER*     PTSUNNY   79  66  65 W9        29.90R
HILLSDALE*     SUNNY     79  67  66 W8        29.90S
HOLLAND        SUNNY     76  66  71 W10       29.90R
GRAND RAPIDS   PTSUNNY   78  66  66 W10       29.87R
KALAMAZOO      PTSUNNY   78  61  55 W9        29.89R
STURGIS*       PTSUNNY   79  66  65 W8        29.90R
THREE RIVERS*  CLOUDY    78  65  62 W7        29.90S

$$
OHZ001>008-015>018-024>025-201700-
NORTHWEST OHIO

CITY           SKY/WX    TMP DP  RH WIND       PRES   REMARKS
DEFIANCE       MOSUNNY   79  68  69 VRB6      29.90R
FINDLAY        MOSUNNY   78  69  73 W8        29.90R
TOLEDO EXPRESS MOSUNNY   78  68  71 SW5       29.88S
TOLEDO METCALF MOSUNNY   78  68  71 SW10      29.89S
LIMA           MOSUNNY   79  70  74 SW12      29.93R

$$
&&


USA.gov is the U.S. government's official web portal to all federal, state and local government web resources and services.